Location: ????????
(55.7667°N, 37.4833°E)
Time: 16:41:36
(UTC+00:00)

MetOp-A - Pass Details

Date: 19 May 2025
Orbit: 521 x 774 km, 98.3° (Epoch: 21 June)

Event Time Altitude Azimuth Distance (km) Brightness Sun altitude
Exits shadow 20:33:19 19° 183° (S) 1,792 5.3 -13.4°
Maximum altitude 20:37:01 59° 259° (WSW) 901 4.3 -13.5°
Drops below altitude 10° 20:42:08 10° 338° (NNW) 2,332 7.9 -13.7°
Sets 20:44:30 0° 343° (NNW) 3,252 9.2 -13.7°
